This is the latest recevied weather packets stored in our database for station/object KB3KBR-WX. If no packets are shown the sender has not sent any weather packets the latest 10 day(s).
| Time | Temp. | Humidity | Pressure | Rain* | Wind** | Luminosity | Snow |
|---|---|---|---|---|---|---|---|
| 1787955751 | 21.67° C | 54% | 1018.7 hPa | 0 mm | - | - | - |
| 1787955421 | 21.67° C | 53% | 1018.5 hPa | 0 mm | - | - | - |
| 1787955092 | 22.22° C | 54% | 1018.5 hPa | 0 mm | - | - | - |
| 1787954791 | 22.22° C | 53% | 1018.5 hPa | 0 mm | - | - | - |
| 1787954462 | 22.22° C | 51% | 1018.5 hPa | 0 mm | - | - | - |
| 1787953831 | 22.22° C | 54% | 1018.4 hPa | 0 mm | - | - | - |
| 1787953505 | 22.22° C | 53% | 1018.3 hPa | 0 mm | - | - | - |
| 1787953171 | 22.22° C | 55% | 1018.3 hPa | 0 mm | - | - | - |
| 1787952871 | 22.78° C | 52% | 1018.4 hPa | 0 mm | - | - | - |
| 1787952542 | 22.78° C | 53% | 1018.3 hPa | 0 mm | - | - | - |
| 1787952210 | 22.78° C | 52% | 1018.2 hPa | 0 mm | - | - | - |
| 1787951882 | 22.78° C | 51% | 1018.2 hPa | 0 mm | - | - | - |
| 1787951551 | 23.33° C | 51% | 1018.1 hPa | 0 mm | - | - | - |
| 1787951255 | 23.33° C | 49% | 1018.2 hPa | 0 mm | - | - | - |
| 1787950922 | 23.33° C | 52% | 1018.2 hPa | 0 mm | - | - | - |
| 1787950622 | 23.89° C | 50% | 1018.2 hPa | 0 mm | - | - | - |
| 1787950291 | 23.33° C | 50% | 1018.2 hPa | 0 mm | - | - | - |
| 1787949991 | 23.89° C | 50% | 1018.2 hPa | 0 mm | - | - | - |
| 1787949660 | 23.89° C | 51% | 1018.1 hPa | 0 mm | - | - | - |
| 1787949332 | 23.89° C | 48% | 1018 hPa | 0 mm | - | - | - |
| 1787949031 | 23.89° C | 49% | 1018.1 hPa | 0 mm | - | - | - |
| 1787948732 | 23.89° C | 50% | 1018 hPa | 0 mm | - | - | - |
| 1787948431 | 24.44° C | 49% | 1018.1 hPa | 0 mm | - | - | - |
| 1787948101 | 23.89° C | 48% | 1018.1 hPa | 0 mm | - | - | - |
| 1787947771 | 24.44° C | 47% | 1018.1 hPa | 0 mm | - | - | - |
* Rain latest hour (hover to see other rain measurements)
** Current wind speed in m/s (hover to see current wind gust speed)